EN

Hourly Weather La Calera

Today, 25 July, Sunday

Time Temperature Precipitation Wind Pressure Humidity
00:00 +16°C° 0 mm 2 mps 618 mmHg 81%
01:00 +16°C° 0 mm 2 mps 617 mmHg 84%
02:00 +15°C° 0 mm 1 mps 617 mmHg 87%
03:00 +15°C° 0 mm 1 mps 617 mmHg 88%
04:00 +15°C° 0 mm 1 mps 617 mmHg 89%
05:00 +15°C° 0 mm 1 mps 617 mmHg 90%
06:00 +16°C° 0 mm 1 mps 618 mmHg 83%
07:00 +19°C° 0 mm 1 mps 618 mmHg 76%
08:00 +19°C° 0 mm 0 mps 619 mmHg 70%
09:00 +23°C° 0 mm 1 mps 619 mmHg 62%
10:00 +25°C° 0 mm 1 mps 620 mmHg 54%
11:00 +27°C° 0 mm 1 mps 620 mmHg 46%
12:00 +28°C° 0 mm 1 mps 619 mmHg 42%
13:00 +29°C° 0 mm 2 mps 619 mmHg 38%
14:00 +30°C° 0 mm 2 mps 618 mmHg 34%
15:00 +28°C° 0.1 mm 3 mps 618 mmHg 42%
16:00 +26°C° 0.1 mm 4 mps 617 mmHg 49%
17:00 +25°C° 0.1 mm 4 mps 616 mmHg 56%
18:00 +22°C° 0.6 mm 3 mps 616 mmHg 64%
19:00 +20°C° 0.6 mm 2 mps 617 mmHg 72%
20:00 +19°C° 0.6 mm 1 mps 617 mmHg 81%
21:00 +18°C° 0.1 mm 1 mps 617 mmHg 82%
22:00 +18°C° 0.1 mm 1 mps 617 mmHg 84%
23:00 +16°C° 0.1 mm 1 mps 617 mmHg 86%

Tomorrow, 26 July, Monday

Time Temperature Precipitation Wind Pressure Humidity
00:00 +16°C° 0 mm 1 mps 617 mmHg 86%
01:00 +16°C° 0 mm 1 mps 616 mmHg 87%
02:00 +15°C° 0 mm 1 mps 616 mmHg 87%
03:00 +15°C° 0 mm 1 mps 616 mmHg 88%
04:00 +15°C° 0 mm 1 mps 616 mmHg 89%
05:00 +14°C° 0 mm 1 mps 616 mmHg 91%
06:00 +16°C° 0 mm 1 mps 617 mmHg 85%
07:00 +19°C° 0 mm 1 mps 617 mmHg 79%
08:00 +20°C° 0 mm 1 mps 618 mmHg 73%
09:00 +22°C° 0 mm 1 mps 618 mmHg 62%
10:00 +24°C° 0 mm 1 mps 619 mmHg 51%
11:00 +26°C° 0 mm 2 mps 619 mmHg 41%
12:00 +27°C° 0 mm 2 mps 619 mmHg 37%
13:00 +28°C° 0 mm 2 mps 618 mmHg 33%
14:00 +29°C° 0 mm 2 mps 618 mmHg 29%
15:00 +29°C° 0 mm 2 mps 618 mmHg 31%
16:00 +28°C° 0 mm 3 mps 617 mmHg 34%
17:00 +28°C° 0 mm 4 mps 617 mmHg 37%
18:00 +26°C° 0 mm 4 mps 617 mmHg 43%
19:00 +22°C° 0 mm 4 mps 617 mmHg 50%
20:00 +20°C° 0 mm 4 mps 617 mmHg 56%
21:00 +19°C° 0 mm 3 mps 617 mmHg 58%
22:00 +18°C° 0 mm 3 mps 617 mmHg 59%
23:00 +17°C° 0 mm 2 mps 617 mmHg 60%

Day after tomorrow, 27 July, Tuesday

Time Temperature Precipitation Wind Pressure Humidity
00:00 +17°C° 0 mm 2 mps 616 mmHg 62%
01:00 +17°C° 0 mm 2 mps 616 mmHg 64%
02:00 +16°C° 0 mm 2 mps 616 mmHg 66%
03:00 +16°C° 0 mm 1 mps 616 mmHg 68%
04:00 +15°C° 0 mm 1 mps 616 mmHg 71%
05:00 +15°C° 0 mm 1 mps 616 mmHg 74%
06:00 +18°C° 0 mm 1 mps 617 mmHg 69%
07:00 +19°C° 0 mm 1 mps 618 mmHg 64%
08:00 +21°C° 0 mm 1 mps 619 mmHg 59%
09:00 +23°C° 0 mm 1 mps 619 mmHg 52%
10:00 +25°C° 0 mm 1 mps 619 mmHg 45%
11:00 +27°C° 0 mm 1 mps 619 mmHg 38%
12:00 +28°C° 0 mm 2 mps 619 mmHg 34%
13:00 +29°C° 0 mm 2 mps 619 mmHg 31%
14:00 +29°C° 0 mm 2 mps 618 mmHg 28%
15:00 +29°C° 0 mm 2 mps 618 mmHg 30%
16:00 +29°C° 0 mm 3 mps 618 mmHg 33%
17:00 +28°C° 0 mm 3 mps 617 mmHg 36%
18:00 +26°C° 0 mm 4 mps 617 mmHg 42%
19:00 +23°C° 0 mm 4 mps 617 mmHg 48%
20:00 +20°C° 0 mm 4 mps 617 mmHg 55%
21:00 +19°C° 0 mm 3 mps 617 mmHg 58%
22:00 +18°C° 0 mm 2 mps 617 mmHg 61%
23:00 +17°C° 0 mm 2 mps 617 mmHg 65%

28 July, Wednesday

Time Temperature Precipitation Wind Pressure Humidity
00:00 +17°C° 0 mm 2 mps 617 mmHg 66%
01:00 +17°C° 0 mm 2 mps 617 mmHg 67%
02:00 +18°C° 0 mm 1 mps 616 mmHg 69%
03:00 +18°C° 0 mm 1 mps 617 mmHg 70%
04:00 +16°C° 0 mm 1 mps 617 mmHg 71%
05:00 +16°C° 0 mm 1 mps 617 mmHg 72%
06:00 +18°C° 0 mm 1 mps 617 mmHg 69%
07:00 +20°C° 0 mm 1 mps 618 mmHg 66%
08:00 +21°C° 0 mm 1 mps 619 mmHg 63%
09:00 +22°C° 0 mm 1 mps 619 mmHg 57%
10:00 +24°C° 0 mm 1 mps 619 mmHg 52%
11:00 +25°C° 0 mm 2 mps 619 mmHg 46%
12:00 +26°C° 0 mm 2 mps 619 mmHg 44%
13:00 +26°C° 0 mm 2 mps 619 mmHg 41%
14:00 +27°C° 0 mm 2 mps 618 mmHg 39%
15:00 +26°C° 0 mm 2 mps 618 mmHg 42%
16:00 +26°C° 0 mm 3 mps 617 mmHg 44%
17:00 +25°C° 0 mm 3 mps 617 mmHg 47%
18:00 +24°C° 0 mm 3 mps 617 mmHg 53%
19:00 +21°C° 0 mm 3 mps 617 mmHg 58%
20:00 +19°C° 0 mm 2 mps 617 mmHg 64%
21:00 +18°C° 0 mm 2 mps 617 mmHg 69%
22:00 +17°C° 0 mm 2 mps 616 mmHg 73%
23:00 +18°C° 0 mm 1 mps 616 mmHg 78%

29 July, Thursday

Time Temperature Precipitation Wind Pressure Humidity
00:00 +16°C° 0 mm 1 mps 616 mmHg 81%
01:00 +16°C° 0 mm 1 mps 616 mmHg 84%
02:00 +15°C° 0 mm 1 mps 616 mmHg 87%
03:00 +15°C° 0 mm 1 mps 616 mmHg 88%
04:00 +15°C° 0 mm 1 mps 616 mmHg 89%
05:00 +15°C° 0 mm 2 mps 616 mmHg 90%
06:00 +18°C° 0 mm 1 mps 617 mmHg 82%
07:00 +19°C° 0 mm 1 mps 618 mmHg 74%
08:00 +21°C° 0 mm 1 mps 618 mmHg 65%
09:00 +23°C° 0 mm 2 mps 619 mmHg 59%
10:00 +25°C° 0 mm 3 mps 619 mmHg 53%
11:00 +27°C° 0 mm 3 mps 619 mmHg 46%
12:00 +27°C° 0 mm 3 mps 619 mmHg 44%
13:00 +28°C° 0 mm 3 mps 618 mmHg 43%
14:00 +28°C° 0 mm 4 mps 618 mmHg 41%
15:00 +27°C° 0.1 mm 4 mps 617 mmHg 47%
16:00 +25°C° 0.1 mm 4 mps 617 mmHg 53%
17:00 +23°C° 0.1 mm 5 mps 616 mmHg 58%
18:00 +21°C° 0 mm 5 mps 617 mmHg 65%
19:00 +20°C° 0 mm 4 mps 617 mmHg 71%
20:00 +18°C° 0 mm 4 mps 617 mmHg 77%
21:00 +18°C° 0 mm 3 mps 617 mmHg 81%
22:00 +17°C° 0 mm 3 mps 617 mmHg 85%
23:00 +16°C° 0 mm 2 mps 617 mmHg 88%

30 July, Friday

Time Temperature Precipitation Wind Pressure Humidity
00:00 +16°C° 0 mm 2 mps 617 mmHg 89%
01:00 +16°C° 0 mm 2 mps 617 mmHg 90%
02:00 +16°C° 0 mm 2 mps 616 mmHg 90%
03:00 +15°C° 0 mm 2 mps 616 mmHg 90%
04:00 +15°C° 0 mm 2 mps 616 mmHg 89%
05:00 +15°C° 0 mm 2 mps 616 mmHg 89%
06:00 +17°C° 0 mm 3 mps 617 mmHg 81%
07:00 +19°C° 0 mm 3 mps 618 mmHg 73%
08:00 +21°C° 0 mm 4 mps 619 mmHg 66%
09:00 +22°C° 0 mm 4 mps 619 mmHg 59%
10:00 +25°C° 0 mm 5 mps 619 mmHg 52%
11:00 +27°C° 0 mm 5 mps 619 mmHg 46%
12:00 +27°C° 0 mm 6 mps 619 mmHg 44%
13:00 +28°C° 0 mm 6 mps 619 mmHg 42%
14:00 +29°C° 0 mm 6 mps 618 mmHg 41%
15:00 +27°C° 0 mm 6 mps 618 mmHg 46%
16:00 +26°C° 0 mm 6 mps 618 mmHg 51%
17:00 +24°C° 0 mm 6 mps 617 mmHg 56%
18:00 +22°C° 0 mm 6 mps 617 mmHg 63%
19:00 +21°C° 0 mm 5 mps 617 mmHg 71%
20:00 +19°C° 0 mm 5 mps 617 mmHg 78%
21:00 +18°C° 0 mm 4 mps 617 mmHg 81%
22:00 +18°C° 0 mm 4 mps 618 mmHg 84%
23:00 +17°C° 0 mm 3 mps 618 mmHg 87%
Show more